Location: 81360 Arifat, France
(43.7204°N, 2.3408°E)
Time: 07:44:03
(UTC+01:00)

Vanguard 3 - All Passes

Search period start: 11 December 2025 00:00
Search period end: 21 December 2025 00:00
Orbit: 507 x 3207 km, 33.3° (Epoch: 10 December)

Date Brightness Start Highest point End Pass type
(mag) Time Alt. Az. Time Alt. Az. Time Alt. Az.
11 Dec - 11:49:03 10° S 11:54:13 14° SSE 11:58:23 10° SE daylight
11 Dec - 13:58:48 10° SW 14:05:47 25° S 14:10:29 10° ESE daylight
11 Dec - 16:11:22 10° WSW 16:16:26 26° S 16:20:03 10° SE daylight
11 Dec - 18:24:52 10° SW 18:26:17 11° SSW 18:27:37 10° S visible
12 Dec - 12:36:22 10° SSW 12:44:15 22° SSE 12:49:42 10° ESE daylight
12 Dec - 14:48:34 10° WSW 14:55:30 30° S 15:00:02 10° ESE daylight
12 Dec - 17:01:44 10° WSW 17:05:46 21° SSW 17:08:54 10° SSE daylight
13 Dec - 11:14:44 10° SSW 11:22:19 18° SSE 11:28:01 10° ESE daylight
13 Dec - 13:25:32 10° SW 13:34:11 30° S 13:39:42 10° ESE daylight
13 Dec - 15:38:49 10° WSW 15:45:04 30° S 15:49:13 10° SE daylight
13 Dec - 17:52:49 10° SW 17:54:55 13° SSW 17:56:47 10° S visible
14 Dec - 09:55:36 10° SSE 10:00:01 12° SSE 10:03:54 10° SE daylight
14 Dec - 12:02:38 10° SSW 12:12:25 26° SSE 12:18:55 10° ESE daylight
14 Dec - 14:15:33 10° WSW 14:23:58 35° S 14:29:12 10° ESE daylight
14 Dec - 16:29:22 10° WSW 16:34:25 24° SSW 16:38:02 10° SE daylight
15 Dec - 10:40:32 10° SSW 10:50:13 21° SSE 10:57:16 10° ESE daylight
15 Dec - 12:52:03 10° SW 13:02:25 34° S 13:08:50 10° ESE daylight
15 Dec - 15:06:00 10° WSW 15:13:34 34° S 15:18:22 10° SE daylight
15 Dec - 17:20:28 10° WSW 17:23:29 15° SSW 17:26:00 10° S daylight
16 Dec - 09:20:27 10° S 09:27:42 15° SSE 09:33:44 10° ESE daylight
16 Dec - 11:28:45 10° SW 11:40:22 30° SSE 11:47:57 10° ESE daylight
16 Dec - 13:42:16 10° WSW 13:52:17 39° S 13:58:16 10° ESE daylight
16 Dec - 15:56:42 10° WSW 16:02:56 27° SSW 16:07:09 10° SE daylight
17 Dec - 10:06:21 10° SSW 10:17:54 24° SSE 10:26:14 10° ESE daylight
17 Dec - 12:18:21 10° SW 12:30:27 38° S 12:37:49 10° ESE daylight
17 Dec - 14:32:54 10° WSW 14:41:57 38° S 14:47:27 10° ESE daylight
17 Dec - 16:47:53 10° WSW 16:52:01 17° SSW 16:55:12 10° S daylight
18 Dec - 08:45:49 10° S 08:55:10 17° SSE 09:02:50 10° ESE daylight
18 Dec - 10:54:48 10° SW 11:08:07 34° SSE 11:16:49 10° ESE daylight
18 Dec - 13:08:44 10° WSW 13:20:25 43° S 13:27:16 10° ESE daylight
18 Dec - 15:23:47 10° WSW 15:31:22 31° SSW 15:36:15 10° SE daylight
19 Dec - 09:32:12 10° SSW 09:45:22 27° SSE 09:54:57 10° ESE daylight
19 Dec - 11:44:32 10° SW 11:58:17 42° S 12:06:40 10° ESE daylight
19 Dec - 13:59:32 10° WSW 14:10:11 42° S 14:16:27 10° ESE daylight
19 Dec - 16:15:02 10° WSW 16:20:27 20° SSW 16:24:22 10° SSE daylight
20 Dec - 08:11:29 10° S 08:22:27 19° SE 08:31:30 10° ESE daylight
20 Dec - 10:20:48 10° SW 10:35:37 37° SSE 10:45:30 10° E daylight
20 Dec - 12:35:02 10° WSW 12:48:20 47° S 12:56:09 10° ESE daylight
20 Dec - 14:50:34 10° W 14:59:39 34° SSW 15:05:16 10° SE daylight
